SCP
0 0 0 0 0 0 0 0 0 0 0 0 0 0 0 0 0 0 0 0 0 0 0 0 0 0 0 -0 -0 0 0 0 0 0 0 0 -0 -0 -0 -0 -0 0 0
0 0 0 0 0 0 0 0 0 0 0 0 0 0 0 0 0 0 0 0 0 0 0 0 0 0 0 -0 0 0 0 0 0 0 0 0 0 0 0 0 0 0 0
0 0 0 0 0 0 0 0 0 0 0 0 0 0 0 0 0 0 0 0 0 0 0 0 0 0 0 -0 0 0 0 0 0 0 0 0 0 0 -0 0 0 0 0
0 0 0 0 0 0 0 0 0 0 0 0 0 0 0 0 0 0 0 0 0 0 0 0 0 0 0 -0 0 0 0 0 0 0 0 0 0 0 -0 -0 0 0 -0
0 0 0 0 0 0 0 0 0 0 0 0 0 0 0 0 0 0 0 0 0 0 0 0 0 0 0 0 0 0 0 0 0 0 0 0 0 0 0 0 -0 -0 -0
0 0 0 0 0 0 0 0 0 0 0 0 0 0 0 0 0 0 0 0 0 0 0 0 0 0 0 0 0 0 0 0 0 0 0 0 0 0 0 0 0 0 -0
0 0 0 0 0 0 0 0 0 0 0 0 0 0 0 0 0 0 0 0 0 0 0 0 0 0 0 0 0 0 0 0 0 0 0 0 0 0 0 0 0 0 0
0 0 0 0 0 0 0 0 0 0 0 0 0 0 0 0 0 0 0 0 0 0 0 0 0 0 0 0 0 0 0 0 0 0 0 0 0 0 0 0 0 0 0
0 0 0 0 0 0 0 0 0 0 0 0 0 0 0 0 0 0 0 0 0 0 0 0 0 0 0 0 0 0 0 0 0 0 0 0 0 0 0 0 0 0 0
0 0 0 0 0 0 0 0 0 0 0 0 0 0 0 0 0 0 0 0 0 0 0 0 0 0 0 0 0 0 0 0 0 0 0 0 0 0 0 0 0 0 0
0 0 0 0 0 0 0 0 0 0 0 0 0 0 0 0 0 0 0 0 0 0 0 0 0 0 0 0 0 0 0 0 0 0 0 0 0 0 0 0 0 0 0
0 0 0 0 0 0 0 0 0 0 0 0 0 0 0 0 0 0 0 0 0 0 0 0 0 0 0 0 0 0 0 0 0 0 0 0 0 0 0 0 0 0 0
0 0 0 0 0 0 0 0 0 0 0 0 0 0 0 0 0 0 0 0 0 0 0 0 0 0 0 0 0 0 0 0 0 0 0 0 0 0 0 0 0 0 0
0 0 0 0 0 0 0 0 0 0 0 0 0 0 0 0 0 0 0 0 0 0 0 0 0 0 0 0 0 0 0 0 0 0 0 0 0 0 0 0 0 0 0
0 0 0 0 0 0 0 0 0 0 0 0 0 0 0 0 0 0 0 0 0 0 0 0 0 0 0 0 0 0 0 0 0 0 0 0 0 0 0 0 0 0 0
0 0 0 0 0 0 0 0 0 0 0 0 0 0 0 0 0 0 0 0 0 0 0 0 0 0 0 0 0 0 0 0 0 0 0 0 0 0 0 0 0 0 0
0 0 0 0 0 0 0 0 0 0 0 0 0 0 0 0 0 0 0 0 0 0 0 0 0 0 0 0 0 0 0 0 0 0 0 0 0 0 0 0 0 0 -0
0 0 0 0 0 0 0 0 0 0 0 0 0 0 0 0 0 0 0 0 0 0 0 0 0 0 0 0 0 0 0 0 0 0 0 0 0 0 0 0 0 0 0
0 0 0 0 0 0 0 0 0 0 0 0 0 0 0 0 0 0 0 0 0 0 0 0 0 0 0 0 0 0 0 0 0 0 0 0 0 0 0 0 0 0 0
0 0 0 0 0 0 0 0 0 0 0 0 0 0 0 0 0 0 0 0 0 0 0 0 0 0 0 0 0 0 0 0 0 0 0 0 0 0 0 0 0 0 0
0 0 0 0 0 0 0 0 0 0 0 0 0 0 0 0 0 0 0 0 0 0 0 0 0 0 0 0 0 0 0 0 0 0 0 0 0 0 0 0 0 0 0
0 0 0 0 0 0 0 0 0 0 0 0 0 0 0 0 0 0 0 0 0 0 0 0 0 0 0 0 0 0 0 0 0 0 0 0 0 0 0 0 0 0 0
0 0 0 0 0 0 0 0 0 0 0 0 0 0 0 0 0 0 0 0 0 0 0 0 0 0 0 0 0 0 0 0 0 0 0 0 0 -0 0 0 0 0 0
0 0 0 0 0 0 0 0 0 0 0 0 0 0 0 0 0 0 0 0 0 0 0 0 0 0 0 0 0 0 0 0 0 0 0 0 -0 0 0 0 0 0 0
0 0 0 0 0 0 0 0 0 0 0 0 0 0 0 0 0 0 0 0 0 0 0 0 0 0 0 0 0 0 0 0 0 0 0 0 -0 0 0 0 0 0 0
0 0 0 0 0 0 0 0 0 0 0 0 0 0 0 0 0 0 0 0 0 0 0 0 0 0 0 0 0 0 0 0 0 0 0 0 -0 0 0 0 0 0 0
Wind_Speed_500mb
55 54 56 61 65 65 68 72 72 72 72 70 65 59 57 53 48 42 38 36 35 34 35 36 40 43 44 43 46 50 55 58 61 68 76 88 54 71 50 46 40 48 78
44 49 52 62 76 73 75 74 72 74 76 74 68 64 59 57 52 48 43 41 39 38 37 38 41 44 43 41 43 48 53 55 49 55 61 40 64 7 28 56 71 66 61
43 49 59 65 70 76 77 79 79 80 82 78 73 69 63 58 55 53 50 45 41 39 39 40 42 44 43 39 44 50 51 51 51 46 34 24 25 83 41 45 53 47 55
36 41 52 62 68 70 70 72 78 83 83 81 81 75 69 64 58 55 52 47 42 39 39 41 44 43 44 42 46 47 49 52 52 48 47 43 47 30 83 79 70 88 76
32 41 55 58 58 60 64 70 77 85 87 86 83 78 73 67 61 60 54 48 43 41 42 43 43 44 44 40 47 51 53 55 56 55 55 56 56 50 47 102 131 98 96
21 32 40 46 52 58 63 71 76 85 85 87 85 83 78 72 68 63 56 50 44 44 45 42 41 43 46 46 52 58 63 65 66 66 65 65 61 53 47 64 120 125 134
22 35 43 47 51 60 62 66 69 78 82 85 89 88 83 76 71 64 58 50 47 45 42 42 44 46 49 51 58 64 68 68 69 69 73 75 79 79 74 70 100 111 150
27 36 41 43 51 58 62 58 62 70 80 82 90 91 87 82 74 66 56 53 49 43 42 43 46 49 51 55 62 66 69 69 72 73 75 79 83 83 83 80 76 97 112
37 44 47 49 54 58 62 58 61 63 74 82 88 95 90 86 76 65 58 52 45 45 43 46 48 50 54 58 64 69 70 71 73 76 78 80 86 85 81 83 81 81 95
35 39 47 50 54 58 61 67 66 64 68 80 91 95 93 83 73 66 58 49 47 46 45 47 48 51 56 61 65 69 70 73 76 77 80 84 87 89 85 88 90 88 94
25 28 41 49 55 63 69 71 65 70 72 81 92 96 92 82 74 67 55 49 48 46 47 48 50 53 56 61 65 66 70 73 76 76 79 85 86 87 86 83 87 92 91
25 42 55 48 58 72 75 75 71 73 76 83 91 97 94 83 76 64 55 51 47 46 47 48 50 52 56 61 63 66 69 71 74 76 79 87 83 83 86 85 90 91 94
54 68 61 64 71 76 79 81 79 77 78 86 92 95 91 84 73 62 56 49 46 45 46 48 49 52 56 61 63 65 68 70 73 78 83 89 85 87 87 88 92 93 92
63 68 59 74 80 84 88 85 83 78 80 91 96 98 90 81 70 60 53 48 46 45 46 46 47 52 56 60 60 63 65 71 77 82 87 86 84 88 91 91 95 95 97
78 68 70 79 84 86 89 85 81 81 87 94 98 93 87 78 67 57 51 47 45 44 42 42 47 51 56 58 58 62 68 76 82 84 83 85 83 83 85 91 100 94 95
75 75 74 75 81 89 90 86 86 88 92 94 92 90 88 74 62 56 50 47 44 40 37 42 46 50 53 54 58 63 71 77 82 86 85 87 85 87 82 86 88 91 101
78 80 78 74 74 81 87 87 84 86 90 86 86 90 81 69 61 56 51 45 39 36 37 40 44 48 51 52 59 66 73 76 78 79 86 91 87 88 97 95 89 89 93
85 84 73 65 67 63 69 73 76 85 87 87 89 89 81 72 63 56 49 42 35 34 34 37 42 48 48 52 60 68 68 74 79 83 86 93 101 95 92 100 102 101 99
72 60 55 55 53 50 53 65 72 75 79 85 91 90 77 68 60 53 46 37 33 29 30 35 39 46 47 51 58 57 67 77 84 87 88 89 94 96 88 91 101 105 101
51 38 38 37 37 42 42 55 68 76 78 84 92 82 73 64 55 46 38 33 28 25 28 32 37 42 48 49 51 50 61 79 92 100 91 92 80 82 81 89 98 107 102
39 43 44 42 42 45 49 52 63 69 71 83 84 77 68 59 50 42 36 29 23 23 27 30 33 38 42 43 46 46 57 73 89 102 106 94 81 87 88 82 91 101 102
44 50 53 54 54 54 58 65 70 72 78 89 83 72 64 56 47 41 33 25 20 23 24 27 30 33 39 43 41 46 53 62 75 91 92 95 90 84 77 78 71 83 69
55 58 60 60 59 61 64 72 74 77 88 90 80 71 62 53 47 39 32 23 19 19 19 23 28 31 34 40 45 50 57 62 68 72 81 80 69 70 64 64 63 53 44
75 72 66 67 67 65 70 74 81 81 96 92 81 71 62 52 44 36 27 18 15 14 14 21 23 26 32 40 53 59 67 71 69 77 79 71 62 64 59 64 62 54 47
83 77 72 72 74 71 78 85 81 93 95 89 81 71 60 53 43 33 25 20 17 9 14 16 16 24 30 39 44 51 59 62 61 71 77 81 82 78 82 76 73 73 57
93 96 79 76 79 80 90 91 91 99 96 89 80 68 62 52 44 34 28 20 13 2 10 12 10 19 22 32 40 47 51 53 59 70 76 80 81 78 81 87 84 80 78
Wind_Direction_500mb
254 235 226 218 214 212 213 220 220 221 224 225 226 228 232 234 236 239 247 259 271 280 291 300 306 312 316 321 322 321 320 321 322 321 319 322 331 324 310 301 291 289 297
245 227 218 212 215 216 221 221 221 222 226 228 229 231 233 233 235 238 246 256 267 277 289 300 306 309 311 315 319 318 317 318 321 320 325 323 319 309 264 282 284 290 290
246 219 211 209 214 217 223 223 225 227 229 229 227 228 230 232 234 238 245 254 264 278 292 300 303 303 304 313 315 313 312 311 314 316 312 323 305 312 325 293 291 290 288
233 217 207 209 217 220 223 228 228 229 230 229 229 230 234 234 236 238 242 252 267 279 289 294 296 302 304 313 311 307 307 309 310 307 306 295 290 312 313 303 291 299 300
226 216 220 219 219 219 223 228 228 229 231 231 231 231 230 231 231 237 242 253 264 276 283 288 296 300 300 304 303 304 307 307 303 301 296 291 289 281 270 295 302 297 296
229 209 212 214 213 220 222 229 230 231 231 233 231 231 231 230 232 236 242 251 264 273 281 289 292 294 298 304 305 305 305 303 298 296 293 289 285 279 269 275 290 296 298
206 201 203 210 215 218 222 228 230 232 235 234 230 229 230 231 233 236 241 250 258 268 279 285 289 293 297 302 303 303 302 299 295 292 288 285 282 282 276 270 279 287 295
220 218 214 222 225 223 221 222 228 230 234 236 229 229 229 230 232 236 242 250 259 268 274 279 284 289 296 300 302 301 298 296 294 290 289 287 285 283 277 269 271 282 284
231 228 230 238 232 226 226 228 230 230 233 238 231 229 228 229 231 234 240 249 260 268 272 276 281 291 296 300 300 298 298 297 295 292 291 288 287 284 278 273 269 263 274
229 236 239 239 236 235 233 228 231 235 235 233 233 231 229 227 229 233 240 249 258 265 269 276 286 292 297 299 299 299 299 296 294 291 291 289 288 284 277 273 271 264 262
254 258 255 252 247 241 235 231 233 234 232 231 232 231 229 225 226 232 238 247 256 263 271 279 286 292 296 298 299 300 301 297 295 294 293 291 289 282 277 272 271 269 265
260 282 271 262 255 243 237 236 236 236 234 231 228 229 229 223 226 230 237 245 254 263 270 278 286 292 297 300 301 302 300 296 295 296 293 292 288 282 279 275 273 270 269
264 268 257 258 261 247 242 243 238 237 231 228 227 227 226 221 223 228 236 245 254 261 270 279 287 295 299 300 303 302 300 298 298 299 297 296 291 284 280 278 275 272 271
264 260 253 259 258 261 251 245 242 236 229 227 225 227 223 220 222 228 237 245 251 260 270 280 292 297 300 302 306 305 302 300 301 301 296 294 289 286 286 281 277 274 270
281 277 266 263 261 260 256 246 240 235 230 226 225 226 217 218 222 228 235 242 251 261 273 288 293 297 301 305 308 306 304 304 305 302 297 296 293 289 284 283 281 276 273
284 279 278 272 263 260 258 250 240 232 229 227 226 220 212 215 218 227 233 240 251 264 281 287 293 298 302 309 311 309 305 303 305 308 304 298 296 292 289 286 280 276 272
286 287 284 282 274 266 262 254 238 229 227 224 221 213 211 213 217 224 232 240 253 268 277 288 295 300 305 311 311 308 306 310 309 305 307 307 300 294 292 291 287 281 271
281 284 289 289 283 271 257 246 237 231 225 221 217 209 209 211 214 221 228 238 250 265 280 292 298 303 312 313 311 309 311 313 316 315 307 303 302 298 297 295 289 284 280
270 276 288 296 288 273 253 240 231 227 224 222 209 206 206 209 214 219 226 236 249 265 283 292 299 307 313 311 311 319 322 322 319 313 308 305 302 301 300 295 291 287 281
262 274 279 293 283 264 249 240 234 225 222 216 205 204 205 208 212 218 227 237 251 270 285 295 308 311 313 319 326 326 325 323 319 319 311 308 306 306 304 298 294 288 284
257 271 275 271 268 248 234 222 223 225 218 207 203 203 203 205 210 216 224 235 253 276 289 303 312 313 314 327 332 330 326 322 320 313 314 315 317 311 306 303 296 290 287
261 272 265 259 250 240 230 220 218 214 211 201 200 202 203 205 209 215 219 232 255 273 293 311 314 315 330 337 334 331 328 325 319 316 321 319 316 315 313 310 303 310 297
272 273 257 251 241 236 228 223 213 209 198 196 197 197 201 205 210 212 216 223 248 278 302 312 314 330 335 341 344 337 332 330 327 328 322 322 323 322 320 323 322 319 318
275 272 250 241 235 230 223 216 215 203 193 191 192 195 199 205 205 209 216 227 248 270 300 308 327 334 334 345 351 341 338 336 338 331 338 347 338 338 333 340 339 332 326
276 271 258 242 235 224 214 214 208 194 191 189 189 193 199 199 202 206 212 220 235 260 301 314 336 332 337 349 341 342 341 338 342 337 353 358 356 347 347 351 345 342 338
281 274 256 242 233 220 215 208 195 192 191 188 190 194 196 197 199 201 206 208 218 232 296 324 349 329 339 345 347 348 346 351 354 356 2 360 353 343 344 347 343 340 340
Wind_Speed_850mb
55 54 56 61 65 65 68 72 72 72 72 70 65 59 57 53 48 42 38 36 35 34 35 36 40 43 44 43 46 50 55 58 61 68 76 88 54 71 50 46 40 48 78
44 49 52 62 76 73 75 74 72 74 76 74 68 64 59 57 52 48 43 41 39 38 37 38 41 44 43 41 43 48 53 55 49 55 61 40 64 7 28 56 71 66 61
43 49 59 65 70 76 77 79 79 80 82 78 73 69 63 58 55 53 50 45 41 39 39 40 42 44 43 39 44 50 51 51 51 46 34 24 25 83 41 45 53 47 55
36 41 52 62 68 70 70 72 78 83 83 81 81 75 69 64 58 55 52 47 42 39 39 41 44 43 44 42 46 47 49 52 52 48 47 43 47 30 83 79 70 88 76
32 41 55 58 58 60 64 70 77 85 87 86 83 78 73 67 61 60 54 48 43 41 42 43 43 44 44 40 47 51 53 55 56 55 55 56 56 50 47 102 131 98 96
21 32 40 46 52 58 63 71 76 85 85 87 85 83 78 72 68 63 56 50 44 44 45 42 41 43 46 46 52 58 63 65 66 66 65 65 61 53 47 64 120 125 134
22 35 43 47 51 60 62 66 69 78 82 85 89 88 83 76 71 64 58 50 47 45 42 42 44 46 49 51 58 64 68 68 69 69 73 75 79 79 74 70 100 111 150
27 36 41 43 51 58 62 58 62 70 80 82 90 91 87 82 74 66 56 53 49 43 42 43 46 49 51 55 62 66 69 69 72 73 75 79 83 83 83 80 76 97 112
37 44 47 49 54 58 62 58 61 63 74 82 88 95 90 86 76 65 58 52 45 45 43 46 48 50 54 58 64 69 70 71 73 76 78 80 86 85 81 83 81 81 95
35 39 47 50 54 58 61 67 66 64 68 80 91 95 93 83 73 66 58 49 47 46 45 47 48 51 56 61 65 69 70 73 76 77 80 84 87 89 85 88 90 88 94
25 28 41 49 55 63 69 71 65 70 72 81 92 96 92 82 74 67 55 49 48 46 47 48 50 53 56 61 65 66 70 73 76 76 79 85 86 87 86 83 87 92 91
25 42 55 48 58 72 75 75 71 73 76 83 91 97 94 83 76 64 55 51 47 46 47 48 50 52 56 61 63 66 69 71 74 76 79 87 83 83 86 85 90 91 94
54 68 61 64 71 76 79 81 79 77 78 86 92 95 91 84 73 62 56 49 46 45 46 48 49 52 56 61 63 65 68 70 73 78 83 89 85 87 87 88 92 93 92
63 68 59 74 80 84 88 85 83 78 80 91 96 98 90 81 70 60 53 48 46 45 46 46 47 52 56 60 60 63 65 71 77 82 87 86 84 88 91 91 95 95 97
78 68 70 79 84 86 89 85 81 81 87 94 98 93 87 78 67 57 51 47 45 44 42 42 47 51 56 58 58 62 68 76 82 84 83 85 83 83 85 91 100 94 95
75 75 74 75 81 89 90 86 86 88 92 94 92 90 88 74 62 56 50 47 44 40 37 42 46 50 53 54 58 63 71 77 82 86 85 87 85 87 82 86 88 91 101
78 80 78 74 74 81 87 87 84 86 90 86 86 90 81 69 61 56 51 45 39 36 37 40 44 48 51 52 59 66 73 76 78 79 86 91 87 88 97 95 89 89 93
85 84 73 65 67 63 69 73 76 85 87 87 89 89 81 72 63 56 49 42 35 34 34 37 42 48 48 52 60 68 68 74 79 83 86 93 101 95 92 100 102 101 99
72 60 55 55 53 50 53 65 72 75 79 85 91 90 77 68 60 53 46 37 33 29 30 35 39 46 47 51 58 57 67 77 84 87 88 89 94 96 88 91 101 105 101
51 38 38 37 37 42 42 55 68 76 78 84 92 82 73 64 55 46 38 33 28 25 28 32 37 42 48 49 51 50 61 79 92 100 91 92 80 82 81 89 98 107 102
39 43 44 42 42 45 49 52 63 69 71 83 84 77 68 59 50 42 36 29 23 23 27 30 33 38 42 43 46 46 57 73 89 102 106 94 81 87 88 82 91 101 102
44 50 53 54 54 54 58 65 70 72 78 89 83 72 64 56 47 41 33 25 20 23 24 27 30 33 39 43 41 46 53 62 75 91 92 95 90 84 77 78 71 83 69
55 58 60 60 59 61 64 72 74 77 88 90 80 71 62 53 47 39 32 23 19 19 19 23 28 31 34 40 45 50 57 62 68 72 81 80 69 70 64 64 63 53 44
75 72 66 67 67 65 70 74 81 81 96 92 81 71 62 52 44 36 27 18 15 14 14 21 23 26 32 40 53 59 67 71 69 77 79 71 62 64 59 64 62 54 47
83 77 72 72 74 71 78 85 81 93 95 89 81 71 60 53 43 33 25 20 17 9 14 16 16 24 30 39 44 51 59 62 61 71 77 81 82 78 82 76 73 73 57
93 96 79 76 79 80 90 91 91 99 96 89 80 68 62 52 44 34 28 20 13 2 10 12 10 19 22 32 40 47 51 53 59 70 76 80 81 78 81 87 84 80 78
Wind_Direction_850mb
254 235 226 218 214 212 213 220 220 221 224 225 226 228 232 234 236 239 247 259 271 280 291 300 306 312 316 321 322 321 320 321 322 321 319 322 331 324 310 301 291 289 297
245 227 218 212 215 216 221 221 221 222 226 228 229 231 233 233 235 238 246 256 267 277 289 300 306 309 311 315 319 318 317 318 321 320 325 323 319 309 264 282 284 290 290
246 219 211 209 214 217 223 223 225 227 229 229 227 228 230 232 234 238 245 254 264 278 292 300 303 303 304 313 315 313 312 311 314 316 312 323 305 312 325 293 291 290 288
233 217 207 209 217 220 223 228 228 229 230 229 229 230 234 234 236 238 242 252 267 279 289 294 296 302 304 313 311 307 307 309 310 307 306 295 290 312 313 303 291 299 300
226 216 220 219 219 219 223 228 228 229 231 231 231 231 230 231 231 237 242 253 264 276 283 288 296 300 300 304 303 304 307 307 303 301 296 291 289 281 270 295 302 297 296
229 209 212 214 213 220 222 229 230 231 231 233 231 231 231 230 232 236 242 251 264 273 281 289 292 294 298 304 305 305 305 303 298 296 293 289 285 279 269 275 290 296 298
206 201 203 210 215 218 222 228 230 232 235 234 230 229 230 231 233 236 241 250 258 268 279 285 289 293 297 302 303 303 302 299 295 292 288 285 282 282 276 270 279 287 295
220 218 214 222 225 223 221 222 228 230 234 236 229 229 229 230 232 236 242 250 259 268 274 279 284 289 296 300 302 301 298 296 294 290 289 287 285 283 277 269 271 282 284
231 228 230 238 232 226 226 228 230 230 233 238 231 229 228 229 231 234 240 249 260 268 272 276 281 291 296 300 300 298 298 297 295 292 291 288 287 284 278 273 269 263 274
229 236 239 239 236 235 233 228 231 235 235 233 233 231 229 227 229 233 240 249 258 265 269 276 286 292 297 299 299 299 299 296 294 291 291 289 288 284 277 273 271 264 262
254 258 255 252 247 241 235 231 233 234 232 231 232 231 229 225 226 232 238 247 256 263 271 279 286 292 296 298 299 300 301 297 295 294 293 291 289 282 277 272 271 269 265
260 282 271 262 255 243 237 236 236 236 234 231 228 229 229 223 226 230 237 245 254 263 270 278 286 292 297 300 301 302 300 296 295 296 293 292 288 282 279 275 273 270 269
264 268 257 258 261 247 242 243 238 237 231 228 227 227 226 221 223 228 236 245 254 261 270 279 287 295 299 300 303 302 300 298 298 299 297 296 291 284 280 278 275 272 271
264 260 253 259 258 261 251 245 242 236 229 227 225 227 223 220 222 228 237 245 251 260 270 280 292 297 300 302 306 305 302 300 301 301 296 294 289 286 286 281 277 274 270
281 277 266 263 261 260 256 246 240 235 230 226 225 226 217 218 222 228 235 242 251 261 273 288 293 297 301 305 308 306 304 304 305 302 297 296 293 289 284 283 281 276 273
284 279 278 272 263 260 258 250 240 232 229 227 226 220 212 215 218 227 233 240 251 264 281 287 293 298 302 309 311 309 305 303 305 308 304 298 296 292 289 286 280 276 272
286 287 284 282 274 266 262 254 238 229 227 224 221 213 211 213 217 224 232 240 253 268 277 288 295 300 305 311 311 308 306 310 309 305 307 307 300 294 292 291 287 281 271
281 284 289 289 283 271 257 246 237 231 225 221 217 209 209 211 214 221 228 238 250 265 280 292 298 303 312 313 311 309 311 313 316 315 307 303 302 298 297 295 289 284 280
270 276 288 296 288 273 253 240 231 227 224 222 209 206 206 209 214 219 226 236 249 265 283 292 299 307 313 311 311 319 322 322 319 313 308 305 302 301 300 295 291 287 281
262 274 279 293 283 264 249 240 234 225 222 216 205 204 205 208 212 218 227 237 251 270 285 295 308 311 313 319 326 326 325 323 319 319 311 308 306 306 304 298 294 288 284
257 271 275 271 268 248 234 222 223 225 218 207 203 203 203 205 210 216 224 235 253 276 289 303 312 313 314 327 332 330 326 322 320 313 314 315 317 311 306 303 296 290 287
261 272 265 259 250 240 230 220 218 214 211 201 200 202 203 205 209 215 219 232 255 273 293 311 314 315 330 337 334 331 328 325 319 316 321 319 316 315 313 310 303 310 297
272 273 257 251 241 236 228 223 213 209 198 196 197 197 201 205 210 212 216 223 248 278 302 312 314 330 335 341 344 337 332 330 327 328 322 322 323 322 320 323 322 319 318
275 272 250 241 235 230 223 216 215 203 193 191 192 195 199 205 205 209 216 227 248 270 300 308 327 334 334 345 351 341 338 336 338 331 338 347 338 338 333 340 339 332 326
276 271 258 242 235 224 214 214 208 194 191 189 189 193 199 199 202 206 212 220 235 260 301 314 336 332 337 349 341 342 341 338 342 337 353 358 356 347 347 351 345 342 338
281 274 256 242 233 220 215 208 195 192 191 188 190 194 196 197 199 201 206 208 218 232 296 324 349 329 339 345 347 348 346 351 354 356 2 360 353 343 344 347 343 340 340